Details From LIPX - VILLAFRANCA
To LIRQ - Firenze
Flight Number -
Tags generated
Created
Modified
Stats Distance 98 nm / 182 km
Max Altitude 11,400 ft / 3,475 m
Waypoints 3
Social Downloads 1
Likes 0
Share VATSIM

Download

Looking for another format? Having issues loading an existing format? Contact us
Advertisement - Login to hide

Notes

Basic altitude profile: - Ascent Rate: 2500ft/min - Ascent Speed: 250kts - Cruise Altitude: 35000ft - Cruise Speed: 420kts - Descent Rate: 1500ft/min - Descent Speed: 250kts Options: - Use NATs: yes - Use PACOTS: yes - Use low airways: yes - Use high airways: yes

Route

LIPX KREVA LIRQ

ID Type Via Altitude Latitude Longitude Leg Dist Tot Dist Heading (true) Name
O LIPX APT - 0 ft / 0 m 45.39694˚ 10.89042˚ - 0 nm - VILLAFRANCA
KREVA FIX - 11,400 ft / 3,475 m 44.77444˚ 11.23500˚ 40 nm 40 nm 159° / 159° -
O LIRQ APT - 0 ft / 0 m 43.80998˚ 11.20512˚ 57 nm 98 nm 181° / 181° Firenze

Altitude Profile

Advertisement - Login to hide

LIPX

Details ICAO LIPX (VRN)
Name VILLAFRANCA
Region Italy
Timezone Europe/Rome (UTC+2.0)
Stats Elevation 239 ft / 73 m (AMSL)
Location 45.396942° 10.890418°
Runways 1
Magnetic Variation 2.900° E

METAR

LIPX 200820Z VRB02KT CAVOK 22/10 Q1025

Decode

TAF

Not found

Departure Runways

ID Width Length Bearing (true) Bearing (mag) Surface Threshold Offset Overrun Length
04 148 ft / 45 m 10,072 ft / 3,070 m 45.79° 42.89° Asphalt 189 ft / 58 m 815 ft / 248 m
22 148 ft / 45 m 10,072 ft / 3,070 m 225.81° 222.91° Asphalt 1,345 ft / 410 m 189 ft / 58 m

LIRQ

Details ICAO LIRQ (FLR)
Name Firenze
Region Italy
Timezone Europe/Rome (UTC+2.0)
Stats Elevation 142 ft / 43 m (AMSL)
Location 43.809984° 11.205118°
Runways 1
Magnetic Variation 2.913° E

METAR

LIRQ 200820Z 05010KT 010V080 CAVOK 24/09 Q1023

Decode

TAF

TAF LIRQ 200500Z 2006/2106 VRB05KT 9999 SCT040 BECMG 2009/2011 05010KT BECMG 2017/2019 VRB05KT

Decode

Destination Runways

ID Width Length Bearing (true) Bearing (mag) Surface Threshold Offset Overrun Length
05 98 ft / 30 m 5,420 ft / 1,652 m 48.52° 45.61° Asphalt 492 ft / 150 m 0 ft / 0 m
23 98 ft / 30 m 5,420 ft / 1,652 m 228.53° 225.62° Asphalt 2,287 ft / 697 m 0 ft / 0 m

Approach Navaids

Runway Type Ident Frequency Range Bearing (true) Bearing (mag) Slope Elevation
05 Localiser IFZ 110.30 MHz 18 nm / 33 km 48.10° 45.19° - 131 ft / 40 m (AMSL)
05 Glidescope IFZ 110.30 MHz 10 nm / 19 km 47.00° 44.09° 3.00° 144 ft / 44 m (AMSL)
05 DME IFZ 110.30 MHz 18 nm / 33 km - - - 144 ft / 44 m (AMSL)

Popular Alternatives